Wind_Speed
45 43 41 41 39 38 36 36 36 36 35 35 35 35 36 36 36 37 38 39 40 41 42 42 43 44 45 47 49 51 53 55 58 59 60 60 60 60
44 42 40 40 39 37 36 36 36 36 35 35 35 35 35 36 36 37 38 39 40 41 42 42 43 45 46 49 51 52 55 57 58 59 59 59 59 58
43 42 39 39 39 37 36 36 36 35 35 35 35 35 35 35 36 38 39 39 40 40 41 42 44 46 48 50 52 54 56 57 57 57 57 57 57 58
42 41 40 39 38 37 36 35 35 35 35 35 34 34 34 35 37 37 37 38 39 40 42 43 45 47 49 51 53 55 55 55 55 56 57 57 57 58
41 39 39 39 38 36 36 35 34 34 34 33 33 33 34 35 36 36 37 38 39 41 43 44 46 48 50 52 53 54 54 54 55 56 56 57 57 56
39 38 38 37 37 36 35 35 34 33 33 33 33 33 34 35 35 36 37 38 40 42 43 45 47 49 51 52 53 52 53 53 54 55 56 56 54 53
40 38 38 37 37 36 35 35 34 33 32 32 32 33 33 34 35 36 37 38 40 42 43 45 47 49 51 51 51 51 52 53 54 55 55 54 53 52
38 36 36 36 35 35 36 35 34 32 32 32 31 32 33 34 35 35 37 38 40 41 43 45 47 49 50 50 50 51 52 53 53 53 53 52 52 52
37 37 36 36 35 35 35 33 32 32 32 31 31 32 33 33 34 35 37 38 40 41 44 45 47 49 49 49 50 50 51 52 52 52 51 51 51 50
36 35 35 35 34 34 33 32 31 31 31 30 31 32 33 33 34 35 37 38 40 42 44 45 47 48 49 49 49 49 50 51 50 50 50 50 49 48
35 35 35 35 34 33 33 32 31 31 31 31 31 32 32 32 34 35 37 39 40 42 44 45 46 46 47 47 48 48 49 49 49 50 50 49 48 47
35 34 35 34 32 32 31 31 30 30 31 30 30 30 31 32 34 35 37 39 41 42 43 44 44 45 45 45 46 47 47 48 48 49 48 48 47 47
33 33 33 32 32 32 31 30 30 30 30 29 29 30 31 32 34 35 37 39 40 41 42 43 43 44 44 44 45 46 46 46 47 48 47 47 47 46
32 32 32 31 31 32 31 31 30 30 29 29 30 31 32 32 34 35 37 38 39 40 41 42 43 43 44 44 45 45 45 45 46 47 47 47 46 45
33 33 32 32 32 31 30 30 29 29 29 29 29 30 31 32 34 35 36 37 38 40 41 42 42 43 43 43 43 43 43 44 45 46 46 46 45 44
34 33 33 32 30 30 29 28 27 28 28 29 30 31 32 32 33 34 35 36 38 39 41 41 41 42 42 42 42 42 42 43 43 44 44 44 44 43
35 33 33 31 30 29 28 27 27 27 28 28 29 30 30 31 32 33 35 36 37 38 39 40 40 40 40 40 39 40 41 42 43 43 42 43 42 41
34 33 31 29 29 28 27 26 26 27 27 28 28 29 29 30 31 32 33 35 36 37 38 39 38 38 38 37 37 38 39 40 41 41 41 41 40 40
32 30 29 28 28 27 26 26 26 26 26 26 26 27 28 29 30 32 33 34 36 36 37 37 36 35 34 34 35 36 37 39 40 40 40 40 39 39
31 30 29 28 28 27 27 26 25 25 25 25 25 26 27 28 30 31 32 34 35 35 35 34 33 32 31 33 34 35 37 38 38 38 38 39 39 38
30 30 29 28 27 27 26 24 24 24 24 24 24 25 27 28 29 30 32 33 33 32 32 31 30 29 30 32 34 36 36 37 37 36 36 37 37 37
30 29 29 28 27 27 26 25 25 24 24 23 24 25 26 27 28 29 30 30 30 29 28 27 27 27 29 32 33 35 35 36 36 36 36 36 36 36
31 30 28 27 27 27 26 25 24 24 23 23 24 24 25 27 28 28 28 27 26 25 25 25 25 27 29 31 33 34 34 35 35 35 36 36 36 35
Wind_Direction
237 239 243 246 248 252 256 260 264 267 270 274 278 282 286 290 292 295 298 301 304 305 307 308 310 311 312 313 314 315 315 316 316 317 318 318 318 319
237 239 243 247 248 251 256 260 263 267 269 274 278 282 286 289 292 295 299 301 303 305 307 309 310 311 312 314 315 315 315 317 318 318 319 320 320 320
237 239 243 247 248 251 255 259 262 266 269 273 277 282 286 290 293 296 299 302 304 306 308 309 311 312 313 314 315 315 316 318 319 320 320 321 321 321
236 238 243 246 248 251 254 258 261 265 269 273 278 282 286 290 294 297 300 302 304 306 308 310 312 313 314 315 315 316 318 319 320 321 322 322 322 322
235 239 242 245 247 250 253 255 260 265 269 273 278 282 287 291 294 297 300 303 305 307 309 311 313 314 315 315 316 318 319 320 320 322 322 323 323 323
235 238 241 243 245 249 251 254 259 264 269 274 279 283 287 291 294 297 300 303 306 308 310 312 314 315 315 316 317 318 319 320 321 323 323 324 324 324
234 236 238 241 243 247 250 253 258 264 270 274 279 283 287 291 294 297 300 304 306 308 310 312 314 315 316 317 318 319 320 321 322 324 324 325 325 325
232 235 237 239 242 245 249 253 258 263 269 274 279 284 287 291 293 297 301 304 306 309 311 313 315 316 317 318 318 319 320 322 323 324 325 325 326 326
232 235 236 239 241 246 249 252 257 263 269 272 279 284 288 291 294 299 302 305 307 310 312 314 315 316 317 317 318 319 320 322 323 324 326 326 327 327
232 234 236 239 241 246 250 254 257 263 267 272 279 284 288 291 294 299 303 305 308 310 313 315 316 316 317 317 318 319 321 322 323 325 327 328 328 327
231 232 235 239 243 247 251 254 258 263 268 273 278 283 288 291 296 300 303 306 308 310 313 315 316 317 317 318 319 320 322 323 324 327 328 329 328 328
229 231 234 239 243 247 250 254 259 265 269 273 279 285 289 292 297 300 303 306 308 310 313 315 316 318 319 320 321 322 323 324 326 328 329 329 329 328
229 232 234 237 240 245 250 255 261 266 269 274 279 285 289 292 297 301 304 306 308 311 313 315 317 318 319 320 321 322 323 325 327 328 329 330 329 329
229 232 234 237 241 245 251 257 262 266 271 275 279 284 288 292 297 302 304 306 309 311 313 315 317 318 319 320 321 322 323 324 326 328 330 331 331 330
228 230 233 236 241 246 251 256 260 265 271 275 279 283 287 291 297 301 304 307 309 312 314 316 317 318 319 321 321 322 323 325 327 329 331 332 332 332
229 232 234 238 240 244 250 254 258 263 270 274 279 283 287 292 298 301 304 307 310 313 315 316 317 318 319 321 322 323 324 326 328 330 332 332 333 333
231 233 237 239 241 245 250 254 259 264 269 275 280 283 286 292 297 301 305 308 311 313 315 316 317 319 321 322 324 326 327 329 331 332 332 333 334 335
229 233 236 238 243 246 251 255 259 263 268 274 278 282 287 292 297 302 305 309 311 314 315 317 318 319 321 323 326 328 330 332 333 334 334 335 335 337
227 231 234 237 241 245 251 255 259 263 268 273 277 281 288 293 298 303 306 309 312 315 316 318 319 320 322 324 326 329 331 333 334 335 336 336 337 338
226 229 231 235 240 245 250 254 258 263 268 273 277 283 289 294 299 303 306 310 312 315 317 319 321 322 324 325 328 330 332 333 335 336 337 338 339 339
223 227 231 235 240 244 247 251 256 264 269 274 279 284 289 295 299 303 306 309 313 316 318 319 321 323 325 327 329 332 333 334 336 337 338 340 340 341
224 226 230 235 238 242 245 250 256 263 268 274 278 283 289 295 300 303 306 310 313 316 317 319 321 324 327 329 331 333 334 335 337 338 340 341 343 344
223 225 228 233 237 240 244 249 255 261 268 273 277 283 289 294 299 303 307 310 312 315 319 321 323 325 329 331 332 334 336 338 340 341 342 344 345 346
Height
5712 5717 5721 5724 5727 5730 5732 5734 5735 5736 5736 5734 5733 5732 5730 5727 5725 5721 5718 5714 5709 5704 5699 5694 5688 5682 5676 5669 5662 5654 5646 5637 5628 5619 5609 5598 5588 5578
5703 5708 5712 5716 5719 5721 5724 5725 5726 5727 5727 5726 5725 5724 5722 5720 5717 5714 5710 5706 5701 5696 5691 5686 5680 5674 5667 5660 5652 5644 5636 5627 5617 5607 5597 5587 5577 5566
5694 5699 5703 5707 5710 5713 5715 5717 5718 5719 5719 5718 5717 5716 5714 5712 5709 5706 5702 5698 5693 5688 5683 5678 5672 5665 5658 5651 5643 5634 5625 5616 5606 5596 5586 5577 5566 5556
5685 5690 5694 5698 5701 5705 5707 5708 5709 5710 5711 5711 5710 5708 5706 5704 5701 5698 5694 5690 5685 5681 5675 5669 5663 5656 5649 5641 5633 5624 5615 5605 5596 5586 5577 5567 5556 5545
5676 5681 5685 5689 5693 5696 5698 5700 5701 5702 5702 5703 5702 5700 5698 5696 5693 5690 5686 5682 5677 5673 5667 5661 5654 5647 5639 5631 5623 5614 5605 5596 5587 5577 5567 5556 5546 5535
5667 5672 5676 5681 5684 5687 5689 5691 5693 5694 5695 5695 5694 5692 5691 5688 5685 5682 5678 5674 5669 5664 5658 5652 5645 5638 5630 5622 5614 5605 5595 5586 5577 5567 5557 5546 5536 5526
5658 5663 5667 5672 5675 5678 5681 5683 5685 5686 5687 5687 5686 5685 5683 5680 5678 5674 5671 5666 5661 5656 5650 5643 5636 5629 5620 5612 5603 5595 5586 5577 5567 5557 5547 5537 5527 5517
5650 5654 5659 5663 5666 5670 5672 5675 5677 5678 5679 5679 5678 5677 5675 5672 5669 5666 5662 5659 5654 5649 5642 5634 5627 5619 5611 5603 5594 5585 5577 5567 5558 5548 5538 5528 5518 5508
5642 5646 5651 5655 5658 5662 5664 5667 5669 5670 5671 5671 5671 5669 5667 5664 5661 5658 5654 5650 5645 5639 5633 5626 5618 5609 5601 5593 5585 5576 5567 5558 5549 5539 5529 5519 5510 5500
5633 5638 5643 5647 5651 5654 5657 5659 5661 5662 5663 5663 5663 5661 5659 5656 5654 5651 5647 5642 5636 5630 5623 5617 5609 5601 5592 5583 5575 5567 5558 5549 5540 5531 5521 5511 5502 5492
5626 5630 5635 5639 5643 5646 5649 5652 5653 5655 5655 5655 5654 5653 5651 5649 5646 5643 5638 5634 5628 5622 5615 5608 5600 5592 5583 5575 5566 5558 5549 5541 5532 5522 5513 5504 5495 5485
5618 5623 5628 5632 5635 5638 5642 5644 5646 5647 5647 5647 5646 5645 5643 5641 5638 5634 5630 5625 5619 5613 5607 5600 5592 5584 5576 5568 5559 5550 5541 5532 5524 5515 5505 5496 5487 5478
5611 5616 5620 5624 5628 5631 5634 5637 5638 5639 5639 5639 5638 5637 5635 5633 5630 5626 5622 5617 5611 5605 5599 5592 5584 5576 5568 5561 5552 5543 5534 5525 5516 5508 5499 5490 5480 5471
5604 5608 5613 5617 5620 5623 5626 5629 5630 5631 5632 5632 5631 5629 5628 5625 5622 5618 5613 5608 5603 5597 5590 5583 5576 5569 5561 5553 5545 5536 5527 5519 5510 5502 5493 5483 5474 5464
5596 5601 5605 5609 5613 5616 5619 5621 5622 5624 5624 5624 5623 5622 5620 5617 5614 5610 5605 5600 5595 5589 5582 5575 5568 5561 5554 5546 5538 5530 5522 5513 5504 5496 5486 5477 5468 5459
5588 5593 5597 5602 5605 5609 5611 5613 5615 5616 5616 5616 5615 5614 5612 5609 5606 5602 5598 5593 5587 5581 5574 5567 5560 5554 5546 5538 5531 5523 5515 5507 5498 5489 5480 5471 5462 5453
5581 5586 5590 5594 5598 5601 5603 5605 5607 5608 5608 5608 5607 5606 5604 5601 5598 5595 5590 5585 5580 5574 5567 5560 5553 5546 5539 5532 5524 5516 5508 5500 5492 5484 5475 5467 5458 5449
5573 5578 5583 5587 5591 5594 5596 5598 5600 5601 5601 5600 5600 5598 5596 5594 5591 5587 5583 5578 5573 5566 5560 5553 5546 5539 5533 5526 5519 5512 5504 5496 5487 5479 5470 5462 5454 5445
5566 5571 5576 5580 5583 5586 5589 5591 5592 5593 5593 5593 5592 5591 5589 5586 5583 5580 5576 5571 5565 5559 5553 5546 5540 5533 5527 5521 5514 5507 5500 5492 5483 5475 5466 5458 5450 5441
5559 5564 5569 5573 5576 5579 5581 5583 5584 5585 5586 5586 5585 5584 5582 5580 5577 5573 5568 5564 5558 5552 5546 5540 5535 5528 5523 5516 5510 5503 5496 5488 5480 5471 5463 5454 5446 5437
5552 5557 5561 5565 5569 5571 5573 5575 5577 5578 5579 5579 5578 5577 5575 5573 5570 5566 5561 5557 5552 5546 5541 5535 5530 5524 5518 5512 5505 5498 5491 5484 5476 5469 5460 5452 5444 5435
5544 5549 5554 5558 5561 5564 5566 5568 5570 5571 5572 5572 5571 5570 5568 5566 5563 5559 5555 5550 5545 5541 5536 5531 5525 5520 5514 5508 5501 5494 5487 5480 5472 5465 5457 5449 5441 5432
5537 5542 5546 5550 5553 5556 5559 5561 5563 5564 5565 5565 5564 5563 5561 5559 5556 5552 5548 5544 5540 5536 5531 5526 5522 5516 5511 5504 5498 5491 5484 5476 5469 5461 5454 5446 5438 5430